Content
SEND FEEDBACK

Daily
Averages
Monthly
Summary
United States of America

MALDEN, MISSOURI


Home > North America > United States > Missouri
Elevation: 295 feet     Latitude: 36 36N     Longitude: 089 59W

WEATHER
 
SELECT A DAY
Number of Records: 212,651;   Date Range: 1/1/95 - 12/18/14
 
SHARE

PRINT THIS DATA

[ ← Previous Day ]
WEATHER ALMANAC - SEPTEMBER 27, 2013
[ Next Day → ]
[ °C ]   °F
Weather ElementAverageHighLow
Temperature71.9 °F84 °F (1:53 pm)62.1 °F (3:53 am)
Dewpoint61.5 °F64 °F (8:53 am)59 °F (3:53 am)
Humidity72 %93 % (1:53 am)47 % (2:53 pm)
Barometer30.03 in30.09 in (8:53 am)29.99 in (3:53 pm)
Wind Speed2.9 mph8.1 mph (10:53 am)
Weather ElementAverage
Visibility8.1 mi
Wind DirectionENE (60 °)

Weather ElementTotal
Precipitation---
Cooling Degree Days8.1 (Base 65)
Growing Degree Days23.1 (Base 50)
Averaged from 23 records on September 27, 2013
WEATHER CONDITIONS BREAKOUT
WIND DIRECTION BREAKOUT
WEATHER BY HOUR - SEPTEMBER 27, 2013
[ °C ]   °F
Local TimeTemperatureDewpointHumidityBarometerVisibilityWind DirectionWind SpeedGust SpeedPrecipitationEventsConditions
1:53 AM63.0 °F61.0 °F93 %30.00 in3.0 miCalmClear
2:53 AM63.0 °F60.1 °F90 %30.00 in5.0 miCalmClear
3:53 AM62.1 °F59.0 °F90 %30.01 in7.0 miCalmClear
4:53 AM62.1 °F59.0 °F90 %30.02 in6.0 miCalmClear
5:53 AM62.1 °F59.0 °F90 %30.05 in5.0 miCalmClear
6:53 AM62.1 °F59.0 °F90 %30.06 in4.0 miNNE (30°)3.5 mphClear
7:53 AM64.9 °F61.0 °F87 %30.08 in4.0 miCalmClear
8:53 AM70.0 °F64.0 °F81 %30.09 in6.0 miENE (60°)3.5 mphHaze
9:53 AM73.9 °F64.0 °F71 %30.09 in10.0 miESE (110°)3.5 mphClear
10:53 AM78.1 °F63.0 °F60 %30.09 in10.0 miESE (120°)8.1 mphClear
11:53 AM81.0 °F63.0 °F54 %30.07 in10.0 miESE (110°)5.8 mphClear
12:53 PM82.9 °F63.0 °F51 %30.05 in10.0 miESE (120°)4.6 mphPartly Cloudy
1:53 PM84.0 °F63.0 °F49 %30.03 in10.0 miSSE (160°)4.6 mphPartly Cloudy
2:53 PM82.9 °F61.0 °F47 %30.01 in10.0 miSSE (150°)6.9 mphPartly Cloudy
3:53 PM84.0 °F62.1 °F47 %29.99 in10.0 miESE (120°)6.9 mphScattered Clouds
4:53 PM82.9 °F63.0 °F51 %29.99 in10.0 miEast (100°)3.5 mphClear
5:53 PM80.1 °F63.0 °F56 %30.00 in10.0 miEast (100°)4.6 mphClear
6:53 PM75.9 °F61.0 °F60 %30.00 in10.0 miEast (100°)5.8 mphClear
7:53 PM73.0 °F61.0 °F66 %30.00 in10.0 miEast (100°)5.8 mphClear
8:53 PM66.9 °F62.1 °F84 %30.02 in8.0 miCalmClear
9:53 PM66.9 °F62.1 °F84 %30.02 in9.0 miCalmClear
10:53 PM66.0 °F60.1 °F81 %30.02 in9.0 miCalmClear
11:53 PM64.9 °F60.1 °F84 %30.02 in10.0 miCalmClear
Hourly data recorded from KPOF, located miles away from Malden, Missouri







STORIES FROM OUR PARTNERS